Regional Weather Roundup
Issued by NWS

Home | Current Version | Previous Version | Graphics & Text | Print | Product List | Glossary On
Versions: 1 2 3 4 5 6 7 8 9 10 11 12 13 14 15 16 17 18 19 20 21 22 23 24 25 26 27 28 29 30 31 32 33 34 35 36 37 38 39 40 41 42 43 44 45 46 47 48 49 50
176
ASUS44 KJAN 301203
RWRMS

MISSISSIPPI HOURLY WEATHER ROUNDUP
NATIONAL WEATHER SERVICE JACKSON MS
700 AM CDT THU OCT 30 2014

NOTE: "FAIR: INDICATES FEW OR NO CLOUDS BELOW 12,000 FEET WITH NO
SIGNIFICANT WEATHER AND/OR OBSTRUCTIONS TO VISIBILITY.

MSZ001>002-007>008-010>013-018>021-025>028-034>036-301300-
NORTHWEST MISSISSIPPI

CITY           SKY/WX    TMP DP  RH WIND       PRES   REMARKS
CLARKSDALE       N/A     46  46 100 CALM      30.17R VSB 1/2
CLEVELAND      FAIR      44  44 100 N3        30.16R
GREENWOOD      CLEAR     42  40  92 N3        30.16R
6HR MIN TEMP:  41; 6HR MAX TEMP:  48;

GREENVILLE     PTCLDY    45  44  97 CALM      30.15R FOG
6HR MIN TEMP:  45; 6HR MAX TEMP:  50;

GRENADA        FAIR      41  41 100 CALM      30.16S
OLIVE BRANCH   CLEAR     41  41 100 CALM      30.16S
OXFORD         FAIR      37  37 100 CALM      30.17R
TUNICA         SUNNY     43  41  93 CALM      30.16S FOG
$$

MSZ003>006-009-014>017-022>024-029>033-037>039-301300-
NORTHEAST MISSISSIPPI

CITY           SKY/WX    TMP DP  RH WIND       PRES   REMARKS
COLUMBUS AFB   PTCLDY    43  43  99 CALM      30.15R VSB 1
6HR MIN TEMP:  40; 6HR MAX TEMP:  44;

CORINTH        FOG       37  36  93 CALM      30.16R VSB 3/4
GOLDN TRIANGLE CLEAR     45  43  93 NW6       30.13R
STARKVILLE     FAIR      37  37 100 CALM      30.14S
TUPELO         CLEAR     43  40  89 CALM      30.14S
6HR MIN TEMP:  42; 6HR MAX TEMP:  48;

$$

MSZ040-058-301300-
CENTRAL MISSISSIPPI

CITY           SKY/WX    TMP DP  RH WIND       PRES   REMARKS
JACKSON INTL   CLEAR     42  40  92 CALM      30.14R
6HR MIN TEMP:  41; 6HR MAX TEMP:  48;

JACKSON HAWKNS CLEAR     46  43  89 CALM      30.14R
6HR MIN TEMP:  45; 6HR MAX TEMP:  54;

MERIDIAN KEY   CLEAR     39  37  92 CALM      30.14R
6HR MIN TEMP:  39; 6HR MAX TEMP:  47;

MERIDIAN NAS   CLEAR     40  37  89 CALM      30.14R
6HR MIN TEMP:  39; 6HR MAX TEMP:  48;

RAYMOND        HAZE      39  36  87 CALM      30.15R VSB 3/4
VICKSBURG      CLEAR     39  37  92 CALM      30.15R
6HR MIN TEMP:  38; 6HR MAX TEMP:  51;

$$

MSZ059>079-301300-
SOUTH MISSISSIPPI

CITY           SKY/WX    TMP DP  RH WIND       PRES   REMARKS
BROOKHAVEN     FAIR      43  43 100 CALM      30.15R
COLUMBIA         N/A     41  41 100 MISG      30.11R
HATTIESBURG    CLEAR     46  44  93 CALM      30.12R
6HR MIN TEMP:  46; 6HR MAX TEMP:  55;

MCCOMB         CLEAR     50  43  77 N6        30.12R
6HR MIN TEMP:  50; 6HR MAX TEMP:  58;

NATCHEZ        CLEAR     45  39  81 CALM      30.14R
6HR MIN TEMP:  45; 6HR MAX TEMP:  50;

PINE BELT      CLEAR     46  39  76 N7        30.13R
6HR MIN TEMP:  46; 6HR MAX TEMP:  54;

$$

MSZ080>082-301300-
COASTAL MISSISSIPPI

CITY           SKY/WX    TMP DP  RH WIND       PRES   REMARKS
BAY ST LOUIS   CLEAR     52  45  76 CALM      30.10
BILOXI         CLEAR     57  47  70 N9        30.08R
6HR MIN TEMP:  57; 6HR MAX TEMP:  64;

PASCAGOULA     CLEAR     54  50  86 N8        30.07R
6HR MIN TEMP:  54; 6HR MAX TEMP:  63;

GULFPORT       CLEAR     55  44  66 N8        30.08R
6HR MIN TEMP:  55; 6HR MAX TEMP:  64;

$$



USA.gov is the U.S. government's official web portal to all federal, state and local government web resources and services.